User: anonymous
Location: Caltech
(34.1382°N, 118.1253°W)
Time: 11:00:05
(UTC-07:00)
Language:

Cosmos 1980 Rocket - Orbit

View from above orbital plane
View from above orbital plane
View from above satellite
View from above satellite

Ground track
Ground track

The orbit data is extracted from the following two-line orbital elements,

1 19650U 88102B   14262.12275624 -.00000228  00000-0 -91552-4 0  3796
2 19650 071.0006 322.0410 0016698 269.2067 176.3706 14.15676647334176
Epoch (UTC): 19 September 2014 02:56:46
Eccentricity: 0.0016698
inclination: 71.0006°
perigee height: 828 km
apogee height: 852 km
right ascension of ascending node: 322.0410°
argument of perigee: 269.2067°
revolutions per day: 14.15676647
mean anomaly at epoch: 176.3706°
orbit number at epoch: 33417

The dashed part of the orbit path shows where the satellite is in the earth's shadow,  

DLR